Skip Page Navigation
NASA JPL Caltech
NASA Logo - Jet Propulsion Laboratory + View the NASA Portal
+ Center for Near-Earth Object Studies
JPL Home Earth Solar System Stars & Galaxies Technology
JPL Solar System Dynamics
BODIES ORBITS EPHEMERIDES TOOLS PHYSICAL DATA DISCOVERY FAQ SITE MAP
IMPORTANT: The SSD Announcement email list is now available. Major changes are coming in the near future, including possible hostname and/or URL changes. To be notified of such changes, subscribe to this email list.

Please visit this page for more details.


JPL Small-Body Database Browser
Search: [ help ]  
183231 (2002 TJ70)
Classification: Main-belt Asteroid          SPK-ID: 2183231
Ephemeris | Orbit Diagram | Orbital Elements | Mission Design | Physical Parameters | Discovery Circumstances | Close-Approach Data ]

[ show orbit diagram ]
Orbital Elements at Epoch 2458600.5 (2019-Apr-27.0) TDB
Reference: JPL 19 (heliocentric ecliptic J2000)
 Element Value Uncertainty (1-sigma)   Units 
e .1278203144936954 6.8641e-08  
a 3.035301021446443 2.848e-08 au
q 2.647327890302124 2.0494e-07 au
i 8.163677283661457 5.8443e-06 deg
node 242.9126859227603 4.3899e-05 deg
peri 103.6977514125029 4.9022e-05 deg
M 70.89333018784083 2.2476e-05 deg
tp 2458220.132015048268
(2018-Apr-11.63201505)
0.00011979 TDB
period 1931.528314720209
5.29
2.7185e-05
7.443e-08
d
yr
n .1863809074174239 2.6232e-09 deg/d
Q 3.423274152590762 3.212e-08 au
  Orbit Determination Parameters
   # obs. used (total)      416  
   data-arc span      7997 days (21.89 yr)  
   first obs. used      1997-11-06  
   last obs. used      2019-09-29  
   planetary ephem.      DE431  
   SB-pert. ephem.      SB431-N16  
   condition code      0  
   norm. resid. RMS      .63306  
   source      ORB  
   producer      Otto Matic  
   solution date      2019-Nov-07 20:40:02  

Additional Information
 Earth MOID = 1.65518 au 
 Jupiter MOID = 2.05657 au 
 T_jup = 3.214 
[ show covariance matrix ]

Ephemeris | Orbit Diagram | Orbital Elements | Mission Design | Physical Parameters | Discovery Circumstances | Close-Approach Data ]

Physical Parameter Table
Parameter Symbol Value Units Sigma Reference Notes
absolute magnitude H 15.0   n/a MPO454260  

183231 (2002 TJ70)          Discovered 2002-Oct-02 by CINEOS at Campo Imperatore
Reference: 20080420/Numbers.arcLast Updated: 2008-04-23

[ show close-approach data ]
Alternate Designations
 2002 TJ70 = 2007 RV306 
Ephemeris | Orbit Diagram | Orbital Elements | Mission Design | Physical Parameters | Discovery Circumstances | Close-Approach Data ]
ABOUT SSD CREDITS/AWARDS PRIVACY/COPYRIGHT GLOSSARY LINKS
FirstGov
(server date/time)  
NASA Home Page
Site Manager:   Ryan S. Park
Webmaster  Alan B. Chamberlin